Temp
-7 -7 -7 -6 -6 -6 -7 -8 -7 -7 -7 -8 -8 -8 -8 -8 -8 -8 -8 -9 -8 -8 -8 -8 -8 -8 -8 -8 -8 -8 -8 -8 -8 -8 -9 -9 -9 -9 -9 -9 -10 -10 -10
-7 -7 -7 -7 -6 -6 -7 -8 -7 -7 -8 -8 -8 -8 -8 -8 -8 -8 -8 -8 -8 -8 -8 -8 -9 -9 -8 -8 -8 -7 -8 -8 -8 -8 -8 -8 -9 -9 -10 -10 -10 -10 -10
-8 -7 -7 -7 -6 -6 -6 -8 -8 -8 -8 -8 -9 -8 -8 -8 -8 -8 -8 -8 -8 -9 -9 -9 -9 -9 -8 -8 -8 -7 -7 -8 -9 -8 -9 -9 -8 -8 -9 -10 -11 -11 -11
-8 -7 -7 -7 -7 -6 -6 -6 -8 -8 -8 -8 -9 -9 -8 -9 -9 -9 -9 -9 -9 -9 -10 -10 -9 -9 -9 -9 -8 -7 -7 -8 -9 -9 -8 -9 -9 -8 -8 -9 -10 -11 -11
-8 -8 -7 -7 -7 -7 -7 -7 -8 -8 -8 -9 -9 -9 -9 -9 -9 -9 -9 -9 -9 -10 -10 -10 -10 -9 -9 -9 -9 -9 -9 -9 -9 -9 -9 -9 -9 -9 -9 -10 -11 -11 -11
-8 -8 -8 -7 -7 -7 -8 -8 -8 -8 -9 -9 -9 -9 -9 -9 -10 -10 -9 -9 -10 -10 -10 -9 -9 -9 -9 -10 -10 -10 -10 -10 -9 -9 -9 -10 -10 -11 -11 -11 -12 -12 -13
-8 -8 -8 -7 -7 -7 -8 -8 -9 -9 -9 -9 -9 -9 -9 -10 -10 -10 -9 -9 -10 -10 -10 -9 -10 -10 -10 -10 -10 -10 -10 -9 -10 -10 -11 -11 -11 -12 -12 -12 -12 -12 -12
-8 -8 -8 -8 -8 -8 -8 -8 -8 -9 -9 -9 -9 -9 -9 -10 -10 -10 -9 -9 -10 -10 -9 -9 -9 -10 -10 -10 -10 -10 -10 -10 -10 -10 -11 -11 -12 -12 -12 -12 -13 -13 -13
-8 -8 -8 -8 -8 -8 -8 -8 -8 -8 -9 -9 -9 -9 -9 -10 -10 -10 -9 -9 -9 -9 -9 -9 -10 -10 -10 -9 -9 -9 -10 -10 -10 -11 -11 -12 -12 -12 -13 -14 -14 -14 -15
-7 -8 -8 -8 -8 -8 -8 -8 -8 -8 -9 -9 -9 -9 -9 -9 -10 -10 -10 -9 -10 -9 -9 -10 -10 -10 -9 -9 -9 -9 -10 -10 -11 -11 -12 -12 -13 -13 -14 -14 -15 -15 -15
-7 -8 -8 -9 -8 -8 -8 -8 -8 -8 -9 -9 -9 -9 -9 -9 -9 -10 -10 -9 -10 -10 -9 -10 -9 -10 -10 -9 -9 -10 -10 -11 -11 -11 -12 -13 -14 -14 -14 -15 -15 -15 -15
-8 -8 -8 -8 -9 -8 -8 -8 -8 -8 -9 -9 -9 -9 -9 -9 -9 -9 -11 -10 -10 -10 -10 -10 -10 -11 -10 -9 -10 -10 -10 -11 -11 -12 -13 -14 -14 -14 -15 -15 -15 -15 -15
-8 -8 -9 -8 -8 -8 -9 -8 -9 -9 -9 -9 -9 -9 -9 -10 -10 -10 -9 -9 -10 -9 -9 -9 -10 -10 -11 -10 -10 -9 -10 -11 -12 -12 -13 -14 -14 -15 -15 -15 -15 -15 -16
-9 -9 -9 -9 -9 -9 -9 -9 -9 -9 -9 -9 -9 -9 -9 -9 -9 -10 -9 -10 -10 -10 -10 -10 -11 -10 -10 -9 -10 -10 -10 -11 -12 -12 -13 -14 -14 -14 -15 -15 -15 -16 -16
-9 -9 -9 -9 -9 -9 -9 -9 -10 -9 -9 -9 -9 -8 -5 -8 -8 -8 -10 -10 -10 -10 -10 -10 -10 -10 -10 -10 -10 -11 -11 -12 -12 -13 -14 -14 -14 -15 -15 -15 -16 -16 -17
-8 -8 -8 -9 -9 -9 -9 -10 -10 -10 -10 -9 -9 -9 -9 -8 -9 -10 -10 -10 -10 -10 -10 -11 -11 -11 -11 -10 -11 -12 -12 -12 -12 -13 -14 -14 -15 -15 -15 -16 -16 -16 -17
-8 -8 -8 -8 -10 -9 -10 -10 -10 -4 -9 -8 -9 -9 -9 -8 -9 -9 -10 -10 -11 -11 -10 -11 -11 -10 -10 -11 -12 -12 -12 -12 -13 -14 -14 -15 -15 -15 -16 -16 -16 -17 -17
-8 -8 -8 -9 -10 -8 -10 -7 -8 -7 -8 -9 -9 -10 -10 -9 -10 -9 -10 -11 -10 -10 -11 -11 -11 -11 -11 -12 -12 -12 -12 -13 -13 -14 -14 -15 -15 -16 -16 -16 -16 -16 -17
-7 -7 -8 -8 -9 -9 -10 -9 -9 -11 -10 -8 -9 -10 -9 -8 -9 -9 -9 -10 -10 -11 -11 -11 -11 -11 -12 -12 -12 -12 -13 -13 -14 -14 -15 -15 -15 -16 -16 -16 -16 -17 -17
-9 -8 -8 -9 -10 -10 -10 -9 -9 -9 -10 -10 -10 -9 -9 -9 -9 -10 -10 -11 -11 -11 -12 -11 -11 -12 -12 -12 -12 -12 -13 -13 -14 -15 -15 -15 -15 -16 -16 -16 -16 -17 -17
-8 -9 -10 -10 -10 -10 -10 -10 -10 -10 -10 -10 -10 -10 -10 -10 -10 -11 -11 -11 -11 -12 -11 -12 -12 -12 -12 -12 -12 -13 -13 -14 -15 -15 -15 -15 -15 -15 -16 -16 -16 -17 -17
-10 -10 -10 -10 -10 -11 -11 -11 -11 -11 -11 -10 -10 -10 -10 -10 -10 -10 -11 -11 -11 -12 -12 -12 -12 -12 -11 -12 -12 -13 -13 -14 -15 -15 -15 -15 -15 -16 -16 -16 -16 -17 -17
-10 -11 -11 -11 -11 -11 -11 -11 -11 -11 -11 -11 -11 -11 -10 -10 -10 -11 -11 -11 -12 -12 -12 -12 -12 -12 -12 -12 -13 -13 -14 -15 -15 -15 -15 -16 -16 -16 -16 -16 -16 -17 -17
-11 -11 -12 -12 -11 -11 -11 -11 -11 -11 -11 -11 -11 -11 -11 -10 -10 -11 -12 -12 -12 -12 -12 -12 -12 -12 -12 -12 -13 -14 -14 -15 -15 -15 -16 -16 -16 -16 -16 -16 -16 -17 -17
-11 -11 -11 -11 -10 -11 -11 -11 -11 -11 -11 -11 -12 -12 -12 -12 -12 -12 -12 -13 -12 -12 -12 -13 -13 -13 -13 -13 -13 -14 -14 -15 -15 -16 -16 -16 -16 -16 -16 -16 -16 -17 -17
-11 -11 -11 -11 -11 -11 -12 -12 -12 -12 -11 -12 -12 -12 -12 -12 -13 -13 -13 -13 -13 -13 -13 -13 -13 -13 -14 -14 -14 -14 -15 -15 -15 -16 -16 -16 -16 -16 -16 -16 -17 -17 -17
Height
5891 5891 5892 5892 5893 5893 5894 5896 5899 5902 5903 5904 5903 5904 5904 5904 5903 5902 5900 5898 5896 5894 5891 5889 5886 5882 5880 5878 5875 5872 5869 5865 5863 5862 5861 5860 5858 5857 5855 5853 5849 5847 5846
5887 5889 5889 5889 5888 5888 5888 5891 5894 5898 5900 5900 5899 5900 5901 5901 5900 5899 5897 5895 5892 5891 5889 5886 5883 5880 5877 5874 5871 5868 5866 5864 5862 5859 5856 5854 5852 5850 5847 5846 5845 5844 5841
5882 5884 5885 5886 5885 5884 5883 5886 5890 5894 5896 5896 5897 5897 5897 5897 5896 5894 5893 5892 5890 5888 5885 5883 5880 5877 5874 5870 5867 5864 5861 5859 5857 5855 5853 5851 5846 5843 5841 5840 5838 5836 5834
5877 5879 5882 5882 5882 5882 5881 5883 5886 5889 5892 5893 5894 5893 5892 5891 5890 5889 5889 5888 5886 5883 5880 5878 5875 5872 5869 5866 5862 5858 5856 5854 5852 5850 5846 5844 5841 5837 5833 5830 5826 5823 5820
5873 5875 5878 5879 5879 5879 5880 5882 5883 5884 5886 5886 5887 5887 5887 5886 5886 5885 5884 5883 5881 5879 5876 5873 5870 5867 5864 5860 5858 5853 5849 5848 5845 5843 5841 5837 5832 5828 5823 5819 5816 5812 5810
5867 5870 5873 5874 5876 5876 5877 5878 5879 5881 5882 5883 5884 5883 5883 5883 5881 5880 5878 5877 5874 5872 5870 5868 5866 5862 5858 5854 5851 5848 5844 5841 5838 5835 5831 5826 5821 5816 5811 5809 5803 5800 5797
5862 5865 5867 5869 5870 5871 5871 5871 5873 5875 5876 5877 5877 5877 5877 5876 5875 5874 5872 5870 5868 5866 5863 5861 5859 5855 5850 5846 5843 5840 5836 5833 5829 5824 5819 5815 5811 5806 5804 5800 5795 5791 5786
5857 5858 5860 5863 5866 5865 5865 5866 5867 5867 5867 5868 5869 5869 5868 5869 5868 5867 5865 5864 5862 5859 5857 5853 5850 5846 5842 5838 5834 5831 5826 5822 5817 5814 5809 5805 5800 5796 5791 5785 5780 5774 5770
5849 5850 5851 5855 5857 5858 5859 5860 5859 5859 5860 5861 5861 5860 5860 5861 5859 5858 5858 5857 5854 5851 5848 5845 5841 5839 5833 5830 5827 5822 5818 5813 5808 5803 5798 5794 5788 5781 5776 5771 5766 5760 5754
5842 5843 5847 5849 5848 5849 5851 5852 5852 5852 5852 5851 5851 5850 5851 5850 5850 5849 5849 5848 5846 5843 5840 5838 5835 5830 5825 5820 5817 5813 5807 5802 5797 5792 5786 5780 5775 5769 5764 5758 5752 5747 5741
5834 5833 5836 5838 5839 5839 5840 5840 5842 5842 5841 5842 5840 5839 5839 5840 5840 5840 5839 5838 5836 5835 5832 5830 5826 5821 5815 5810 5806 5801 5797 5792 5785 5780 5775 5769 5764 5759 5753 5748 5742 5736 5730
5823 5824 5824 5824 5827 5828 5829 5830 5830 5831 5830 5830 5828 5825 5825 5826 5827 5826 5822 5826 5824 5823 5822 5820 5815 5811 5806 5801 5795 5790 5784 5779 5774 5769 5764 5758 5754 5749 5744 5738 5731 5725 5719
5808 5809 5812 5816 5817 5818 5818 5818 5819 5820 5819 5816 5814 5813 5811 5808 5809 5809 5801 5813 5811 5809 5809 5808 5804 5801 5796 5792 5786 5779 5772 5768 5763 5758 5754 5749 5745 5740 5735 5729 5722 5717 5710
5795 5797 5799 5801 5803 5803 5806 5804 5805 5804 5804 5801 5802 5798 5793 5790 5788 5792 5794 5805 5801 5799 5793 5795 5792 5790 5786 5781 5776 5769 5762 5758 5754 5750 5744 5740 5736 5732 5727 5722 5716 5709 5702
5781 5783 5785 5786 5786 5787 5789 5791 5788 5787 5787 5787 5787 5783 5769 5759 5752 5763 5784 5793 5790 5788 5785 5780 5782 5779 5775 5771 5766 5759 5751 5748 5745 5741 5736 5732 5728 5724 5719 5715 5708 5701 5693
5765 5768 5768 5770 5771 5773 5772 5770 5766 5765 5764 5764 5769 5765 5764 5738 5760 5761 5770 5774 5777 5778 5774 5772 5770 5766 5763 5759 5755 5746 5742 5741 5737 5732 5729 5725 5722 5718 5713 5707 5700 5693 5685
5753 5752 5749 5747 5747 5742 5737 5740 5738 5712 5733 5739 5742 5744 5747 5762 5758 5760 5759 5762 5766 5765 5763 5759 5756 5755 5754 5750 5744 5737 5735 5733 5727 5725 5722 5719 5716 5711 5706 5700 5693 5685 5677
5735 5734 5729 5723 5720 5668 5699 5703 5709 5696 5701 5710 5736 5736 5748 5749 5752 5751 5752 5752 5754 5754 5751 5747 5744 5745 5744 5739 5733 5729 5728 5722 5720 5718 5716 5713 5709 5704 5699 5694 5686 5679 5671
5718 5713 5702 5688 5681 5696 5696 5711 5700 5704 5711 5721 5725 5733 5735 5738 5739 5741 5740 5739 5741 5740 5738 5737 5737 5735 5732 5727 5725 5721 5717 5715 5714 5711 5710 5707 5703 5698 5693 5687 5680 5673 5665
5707 5700 5694 5689 5696 5700 5704 5703 5698 5701 5706 5711 5715 5721 5726 5728 5727 5727 5728 5729 5728 5727 5726 5727 5725 5723 5720 5721 5717 5713 5711 5710 5708 5706 5705 5702 5699 5693 5688 5682 5675 5668 5660
5696 5692 5690 5691 5690 5693 5692 5693 5696 5698 5699 5701 5706 5711 5714 5716 5715 5715 5717 5716 5715 5716 5716 5715 5713 5715 5714 5713 5708 5707 5706 5704 5702 5701 5700 5698 5693 5687 5682 5677 5671 5664 5656
5688 5687 5687 5687 5686 5685 5686 5687 5690 5693 5695 5696 5700 5702 5703 5704 5705 5705 5704 5704 5706 5705 5705 5706 5706 5707 5706 5703 5701 5700 5699 5697 5697 5696 5694 5692 5686 5682 5678 5673 5667 5660 5653
5679 5681 5681 5680 5681 5680 5680 5680 5681 5683 5685 5688 5691 5692 5692 5692 5692 5693 5695 5696 5698 5698 5697 5698 5699 5697 5697 5695 5695 5692 5691 5690 5689 5688 5687 5686 5681 5677 5673 5669 5663 5657 5650
5672 5671 5673 5674 5675 5677 5676 5676 5676 5676 5676 5678 5679 5680 5682 5682 5682 5682 5687 5688 5689 5689 5688 5687 5687 5689 5689 5688 5686 5683 5682 5682 5682 5682 5681 5680 5676 5672 5668 5664 5659 5653 5648
5664 5665 5666 5666 5666 5668 5669 5670 5671 5672 5672 5672 5671 5671 5671 5675 5675 5676 5679 5679 5679 5680 5678 5678 5678 5678 5678 5677 5676 5675 5674 5675 5675 5675 5674 5673 5669 5666 5663 5659 5655 5650 5645
5653 5654 5655 5657 5657 5657 5657 5659 5657 5660 5662 5662 5662 5664 5665 5667 5667 5668 5669 5670 5671 5670 5670 5670 5669 5667 5667 5667 5667 5666 5666 5666 5666 5666 5666 5666 5662 5660 5657 5653 5650 5646 5642
Wind_Speed
9 9 10 12 14 17 20 22 18 18 18 13 13 10 9 7 5 6 7 10 14 18 21 25 28 28 26 25 26 27 24 20 18 19 18 19 19 20 21 22 22 22 21
12 10 11 12 12 14 20 22 20 21 20 14 15 13 12 11 9 7 9 12 17 20 20 26 26 27 26 26 27 28 28 28 25 26 27 26 26 26 21 18 21 23 24
14 12 12 12 13 13 19 24 23 23 20 17 17 17 13 12 9 7 8 11 12 18 19 22 25 28 30 31 29 28 25 26 29 29 29 29 31 31 29 25 25 29 30
16 13 10 10 13 12 17 23 24 24 23 20 20 20 15 12 12 11 12 16 19 21 23 25 26 28 33 36 31 30 25 22 26 31 31 31 33 34 36 37 36 37 38
21 18 9 12 13 17 16 19 20 23 21 22 23 21 19 17 16 15 18 21 22 21 23 25 27 32 36 36 30 27 26 27 29 29 30 31 34 36 39 40 41 43 45
25 19 15 14 15 17 19 24 25 26 27 27 26 26 24 22 19 19 23 24 26 26 26 26 30 34 35 37 34 31 29 30 34 35 36 35 37 41 43 44 47 48 52
23 25 21 19 20 20 21 24 25 25 28 27 31 32 31 27 23 22 25 23 27 29 28 31 33 33 37 39 34 29 29 33 33 35 36 39 40 44 47 49 51 55 56
27 31 30 26 24 26 27 25 24 30 30 31 30 32 32 30 25 26 28 24 28 28 29 32 37 36 39 38 32 33 32 35 37 37 39 41 46 49 49 51 52 56 60
34 37 34 32 30 27 32 31 28 27 33 34 34 35 36 33 32 33 29 27 26 28 30 36 37 37 37 36 37 36 36 38 40 40 43 45 46 46 50 53 56 55 54
43 38 37 36 34 34 31 38 36 34 32 35 38 41 41 42 40 40 34 34 36 34 32 34 35 37 37 39 38 40 39 43 43 44 42 42 47 51 53 52 49 48 47
46 43 42 38 39 35 34 37 43 41 40 38 41 45 45 44 43 44 43 41 40 40 37 37 39 39 39 40 39 39 41 43 42 43 44 44 48 47 45 45 43 43 45
38 36 44 44 40 40 38 39 43 48 46 46 50 51 52 50 49 53 54 37 45 43 39 38 38 36 35 40 39 41 43 43 44 43 41 43 42 42 39 40 41 42 44
53 50 44 46 46 48 48 56 49 51 53 54 57 60 58 57 61 64 57 37 34 47 40 41 45 48 39 39 40 44 44 44 41 38 38 38 39 38 37 37 37 40 41
47 48 47 51 55 59 54 56 57 60 55 60 62 65 65 68 63 69 49 42 42 50 39 40 44 41 41 42 43 43 41 39 37 37 37 37 36 36 33 35 36 39 39
56 58 58 60 65 63 64 67 66 66 67 68 67 64 59 64 62 57 32 35 38 46 39 40 45 37 39 40 43 39 36 35 36 36 35 33 33 32 35 38 38 39 39
57 63 69 68 65 66 67 70 73 72 74 77 71 74 73 43 28 19 26 34 37 39 39 42 39 34 36 39 37 29 34 35 36 34 30 30 30 33 36 38 39 39 39
56 62 65 70 72 73 66 67 72 73 78 66 70 69 46 61 57 26 34 31 37 42 47 35 34 36 38 36 30 29 34 35 34 29 26 29 32 35 36 37 38 38 39
54 53 66 71 78 82 82 69 67 48 23 43 58 24 34 41 36 35 31 30 38 46 46 33 33 35 35 30 27 31 34 33 31 26 26 30 32 32 33 35 35 36 38
41 50 53 43 54 58 44 47 32 27 41 30 26 28 30 33 33 35 40 40 36 31 32 31 32 30 27 27 30 31 30 30 27 22 25 26 29 29 31 33 34 35 37
31 31 31 17 21 31 38 25 19 21 21 21 25 28 33 36 34 35 41 43 36 36 30 31 28 25 24 29 31 30 28 28 23 20 24 26 26 26 29 32 34 34 36
27 22 20 21 25 27 25 23 21 23 25 25 26 29 30 34 40 43 43 41 37 30 29 27 24 25 28 31 30 31 28 25 20 21 23 24 24 25 28 31 32 32 34
27 28 27 23 23 24 27 28 26 25 26 25 30 32 34 38 41 44 39 31 28 25 26 25 24 26 31 30 29 28 25 23 21 21 22 24 23 24 26 28 30 32 32
30 29 28 27 28 26 24 26 30 33 33 33 35 36 39 35 29 27 27 26 27 27 26 26 28 29 31 29 27 25 23 22 20 21 23 25 24 23 24 26 28 30 31
31 31 33 33 30 32 32 35 38 37 39 42 38 40 46 33 32 25 26 26 28 28 27 28 29 31 32 30 24 23 23 23 22 22 23 26 24 23 24 25 26 27 29
36 34 37 43 39 39 42 42 42 45 43 34 32 34 31 31 30 27 29 30 31 33 31 30 32 32 31 29 24 25 26 26 25 24 25 26 24 24 24 25 25 25 26
44 47 50 58 56 39 39 36 29 30 23 18 28 33 38 34 33 35 35 35 34 34 34 34 34 33 30 27 25 26 27 27 28 28 27 27 25 25 24 25 25 25 26
Wind_Direction
244 251 243 247 251 246 238 230 232 220 210 215 217 220 232 234 267 300 322 334 350 351 351 343 342 342 342 341 346 341 333 328 326 326 322 315 308 312 311 302 291 294 296
246 248 249 252 255 244 232 218 221 212 217 225 221 227 233 240 260 290 326 327 334 339 346 345 344 343 341 337 332 333 331 321 323 324 319 320 313 315 314 301 285 276 284
241 253 260 257 261 257 229 213 208 214 223 227 226 230 238 243 257 290 321 330 320 324 329 334 339 343 338 332 329 325 316 315 310 310 315 320 314 313 312 305 297 292 287
233 249 262 262 253 249 235 219 212 216 228 229 231 235 241 255 273 290 304 319 319 321 328 330 331 334 330 332 323 321 312 312 309 314 315 312 307 308 305 297 294 293 298
237 246 251 256 257 241 232 222 224 233 242 243 243 245 255 256 265 281 298 310 311 311 322 323 323 329 328 329 325 319 311 309 310 312 309 302 294 291 288 287 288 288 293
247 243 244 263 282 267 245 236 233 236 240 243 245 246 256 257 261 276 296 308 305 303 317 318 316 321 322 321 317 316 313 311 311 313 311 300 290 287 287 289 288 291 295
245 229 236 262 276 275 254 249 239 246 248 247 244 246 254 253 259 273 292 304 306 303 309 311 313 315 319 319 324 325 318 317 308 303 300 293 292 292 296 297 296 293 293
250 243 245 264 268 264 258 255 254 250 254 258 254 253 255 252 261 266 283 296 297 297 296 307 307 313 320 323 320 315 310 307 306 306 299 294 296 298 295 293 292 291 295
243 257 243 264 263 264 254 254 256 259 253 256 256 254 254 251 259 264 276 288 290 300 305 313 307 314 324 320 319 315 310 304 304 303 300 297 294 292 295 301 302 302 302
249 245 249 259 261 262 267 250 254 258 260 255 254 256 255 255 258 265 273 277 281 292 301 306 307 319 324 324 320 316 309 305 304 302 297 295 297 300 304 305 305 304 304
254 242 250 245 254 258 256 248 251 253 257 260 259 260 259 261 259 263 267 273 278 279 295 302 309 313 319 319 315 311 307 304 302 301 297 294 302 305 307 306 307 308 306
265 261 255 269 253 253 256 257 252 250 251 257 260 261 259 258 260 257 255 255 267 273 287 292 301 307 311 314 312 310 309 304 304 308 304 306 307 309 309 310 312 312 312
267 270 270 260 257 254 257 258 255 253 254 256 258 258 259 255 255 254 246 264 274 267 278 295 303 299 308 312 310 311 311 312 313 312 310 311 310 310 313 316 316 317 316
261 258 258 254 257 263 262 262 266 258 253 257 258 260 258 257 255 266 253 252 265 274 292 306 311 304 306 308 305 308 313 316 315 314 313 313 312 313 316 317 317 319 318
252 254 254 257 257 260 260 263 259 263 256 257 256 260 260 244 232 239 252 264 278 277 295 309 305 303 301 306 305 311 316 315 316 314 315 316 317 317 319 318 319 319 319
262 259 257 255 253 256 258 256 258 257 256 256 256 255 254 263 258 268 261 275 287 291 295 304 298 299 300 303 302 310 314 316 317 317 317 320 320 321 319 319 321 321 319
256 257 260 257 248 246 247 247 254 236 247 254 244 253 248 262 284 273 260 281 290 294 293 296 296 301 301 301 303 313 314 314 321 319 315 318 317 318 319 319 322 323 323
259 273 268 268 253 241 234 240 247 255 261 256 247 293 266 268 287 286 285 297 301 292 301 289 295 298 299 300 308 313 313 320 318 313 313 315 315 317 321 322 326 328 328
268 286 283 271 245 253 298 275 255 282 262 264 264 295 285 294 299 288 291 294 302 295 283 291 294 296 297 301 307 311 317 315 313 312 314 316 316 319 325 328 330 331 334
282 285 282 290 272 266 277 279 285 283 279 281 282 284 290 280 276 288 289 295 289 283 291 285 291 295 295 299 307 315 312 310 310 305 309 314 315 323 328 332 335 336 339
285 288 290 282 278 278 286 298 292 287 291 287 288 291 290 283 292 294 290 298 286 280 282 289 290 291 292 300 313 312 308 302 297 300 310 309 317 329 331 335 337 338 342
280 275 273 277 282 287 285 286 286 283 282 284 289 289 286 294 299 296 287 287 274 281 283 283 284 287 292 303 312 304 299 288 288 297 305 308 317 327 330 334 337 341 343
277 273 277 286 288 285 288 284 282 283 280 278 279 283 281 291 294 291 276 275 279 280 278 277 283 288 292 299 299 293 287 278 281 290 300 306 312 319 325 330 337 341 343
266 272 271 273 274 277 276 276 278 278 283 284 286 285 280 273 274 272 274 273 276 277 277 278 283 286 288 288 291 288 285 276 276 285 295 298 307 315 318 324 331 338 341
255 258 273 271 276 281 284 272 273 270 271 265 275 272 257 268 268 261 277 281 280 277 279 281 281 283 280 284 290 287 280 268 269 278 286 292 302 310 315 318 323 331 338
258 266 266 263 275 268 265 263 256 261 234 238 246 256 265 267 268 266 276 281 278 279 280 277 277 276 274 279 280 279 271 265 266 271 280 285 293 303 312 315 317 322 330